This is the latest recevied weather packets stored in our database for station/object DL9GJ-6. If no packets are shown the sender has not sent any weather packets the latest 1 day(s).
| Time | Temp. | Humidity | Pressure | Rain* | Wind** | Luminosity | Snow |
|---|---|---|---|---|---|---|---|
| 1836274699 | 10.56° C | 93% | 1021.5 hPa | 0 mm | 0 m/s | 0 W/m² | - |
| 1836274535 | 10.56° C | 93% | 1021.5 hPa | 0 mm | 0 m/s | 0 W/m² | - |
| 1836274506 | 10.56° C | 93% | 1021.2 hPa | 0 mm | 0.45 m/s, 130° | 0 W/m² | - |
| 1836274496 | 10.56° C | 93% | 1021.5 hPa | 0 mm | 0 m/s | 0 W/m² | - |
| 1836274175 | 10.56° C | 93% | 1021.4 hPa | 0 mm | 0 m/s | 0 W/m² | - |
| 1836274145 | 10.56° C | 93% | 1021.3 hPa | 0 mm | 0 m/s | 0 W/m² | - |
| 1836274137 | 10.56° C | 93% | 1021.4 hPa | 0 mm | 0 m/s | 0 W/m² | - |
| 1778019260 | 10.56° C | 88% | 1008 hPa | 0 mm | 0.45 m/s, 220° | 0 W/m² | - |
| 1778019252 | 10.56° C | 88% | 1008 hPa | 0 mm | 0.45 m/s, 220° | 0 W/m² | - |
| 1778018901 | 11.11° C | 88% | 1008 hPa | 0 mm | 1.34 m/s, 223° | 0 W/m² | - |
| 1778018543 | 11.11° C | 88% | 1008 hPa | 0 mm | 0.89 m/s, 238° | 0 W/m² | - |
| 1778018181 | 11.11° C | 88% | 1008.1 hPa | 0 mm | 0.89 m/s, 219° | 0 W/m² | - |
| 1778017820 | 11.11° C | 88% | 1008 hPa | 0 mm | 0 m/s | 0 W/m² | - |
| 1778017461 | 11.67° C | 88% | 1008.1 hPa | 0 mm | 0 m/s | 0 W/m² | - |
| 1778017102 | 11.67° C | 88% | 1008 hPa | 0 mm | 1.34 m/s, 239° | 0 W/m² | - |
| 1778017093 | 11.67° C | 88% | 1008 hPa | 0 mm | 1.34 m/s, 239° | 0 W/m² | - |
| 1778016741 | 11.67° C | 87% | 1008 hPa | 0 mm | 1.79 m/s, 258° | 0 W/m² | - |
| 1778016381 | 11.67° C | 87% | 1008.1 hPa | 0 mm | 1.79 m/s, 237° | 0 W/m² | - |
| 1778016021 | 12.22° C | 87% | 1008 hPa | 0 mm | 0.89 m/s, 246° | 0 W/m² | - |
| 1778015662 | 12.22° C | 86% | 1008 hPa | 0 mm | 0.89 m/s, 250° | 0 W/m² | - |
| 1778015301 | 12.22° C | 86% | 1007.9 hPa | 0 mm | 0.89 m/s, 272° | 0 W/m² | - |
| 1778014942 | 12.22° C | 86% | 1007.8 hPa | 0 mm | 1.79 m/s, 240° | 0 W/m² | - |
| 1778014580 | 12.22° C | 86% | 1007.9 hPa | 0 mm | 1.34 m/s, 234° | 0 W/m² | - |
| 1778014221 | 12.22° C | 85% | 1007.8 hPa | 0 mm | 2.24 m/s, 229° | 0 W/m² | - |
| 1778013861 | 12.78° C | 85% | 1007.8 hPa | 0 mm | 1.34 m/s, 273° | 0 W/m² | - |
* Rain latest hour (hover to see other rain measurements)
** Current wind speed in m/s (hover to see current wind gust speed)